Location: Ortigosa de Pesta�o
(41.0874°N, 4.3952°W)
Time: 19:36:41
(UTC+00:00)

Daily predictions for brighter satellites

Satellite Brightness Start Highest point End
(mag) Time Altitude Azimuth Time Altitude Azimuth Time Altitude Azimuth
Cosmos 1666 3.3 18:36:47 10° SSE 18:40:07 32° E 18:43:28 10° NNE
Cosmos 2322 3.8 18:37:11 10° S 18:42:45 57° ESE 18:48:21 10° NNE
CZ-2C R/B 3.5 18:37:25 10° S 18:43:05 76° WSW 18:48:32 10° NNW
CSL-04 Rocket 4.4 18:39:22 10° SE 18:44:16 33° ENE 18:49:07 10° N
Cosmos 1703 Rocket 4.0 18:40:38 10° N 18:44:46 40° ENE 18:48:51 10° SSE
Okean-O 2.8 18:43:01 10° SSE 18:47:17 50° ENE 18:51:35 10° N
BREEZE-M DEB (TANK) 3.1 18:44:54 10° SW 18:47:23 38° SE 18:49:46 10° ENE
Cosmos 1844 Rocket 2.7 18:42:42 10° NNW 18:48:18 82° ENE 18:53:52 10° SSE
Cosmos 1933 Rocket 3.5 18:44:14 10° S 18:48:35 78° E 18:52:59 10° N
H-2A R/B 2.2 18:45:51 10° SSE 18:51:15 70° ENE 18:56:40 10° N
Cosmos 1777 Rocket 4.4 18:47:56 10° N 18:52:55 42° ENE 18:57:50 10° SE
Cosmos 1354 Rocket 4.1 18:49:21 10° NNW 18:54:36 83° WSW 18:59:49 10° SSE
Cosmos 1500 3.8 18:55:57 10° SSW 18:59:36 59° W 19:03:18 10° N
Okean O Rocket 4.4 18:56:50 10° SSW 19:00:18 23° W 19:03:47 10° NW
NOSS 3-2 (C) 4.4 18:57:21 10° SSE 19:01:21 21° ESE 19:05:40 10° ENE
Meteor 1-11 Rocket 4.0 18:58:26 10° SSE 19:03:46 43° E 19:09:02 10° NNE
SJ-11-01 4.2 18:59:30 10° SSE 19:04:10 78° ENE 19:08:53 10° N
Cosmos 2360 Rocket 3.4 19:01:44 10° SW 19:07:07 45° WNW 19:12:33 10° NNE
YAOGAN 1 2.6 19:03:50 10° SSE 19:08:09 89° WSW 19:12:31 10° NNW
Okean 1-7 2.9 19:04:36 10° N 19:08:57 71° E 19:13:14 10° SSE
PSLV R/B 3.9 19:05:51 10° NNE 19:09:56 84° WNW 19:13:59 10° SSW
Cosmos 2341 Rocket 4.0 19:07:07 10° S 19:13:25 87° E 19:19:43 10° N
Cosmos 2333 4.5 19:08:03 10° SSW 19:13:41 73° WNW 19:19:25 10° NNE
SAR-Lupe-4 3.4 19:10:42 10° NNE 19:14:18 80° E 19:17:53 10° S
Cosmos 2237 Rocket 3.2 19:10:01 10° SSE 19:14:29 24° ESE 19:18:58 10° NE
Cosmos 1544 4.4 19:13:30 10° SE 19:16:11 20° E 19:18:53 10° NE
Meteor 1-13 Rocket 4.4 19:10:28 10° N 19:16:18 58° ENE 19:22:00 10° SSE
Cosmos 1844 4.0 19:10:49 10° NNW 19:16:34 73° WSW 19:22:12 10° SSE
SJ 16-02 2.4 19:13:38 10° N 19:17:20 26° ENE 19:19:19 19° ESE
Cosmos 1536 3.1 19:14:38 10° SSE 19:18:26 43° E 19:22:13 10° NNE
Cosmos 2278 Rocket 3.2 19:14:22 10° N 19:19:13 28° NE 19:22:11 18° E
DMSP B5D2-2 4.4 19:15:00 10° NNE 19:19:57 43° E 19:24:52 10° S
SWAS 4.5 19:15:51 10° S 19:20:02 57° ESE 19:24:16 10° NNE
FALCON 9 DEB 4.4 19:17:33 10° NNW 19:20:14 24° NNE 19:21:22 20° ENE
Meteor 1-5 Rocket 4.4 19:15:38 10° SSW 19:21:00 73° W 19:26:35 10° N
SL-4 R/B 1.6 19:17:33 10° NW 19:21:03 64° NNE 19:22:57 24° ESE
Okean 3 3.7 19:18:01 10° N 19:22:10 47° E 19:26:18 10° SSE
Cosmos 2218 Rocket 4.0 19:17:45 10° S 19:24:05 69° E 19:30:26 10° NNE
Abrixas rocket 2.4 19:24:03 10° NW 19:26:22 34° NNE 19:26:46 31° NE
Cosmos 2242 Rocket 4.2 19:22:34 10° NNW 19:26:59 59° W 19:31:19 10° S
SeaSat 1 2.5 19:22:12 10° NE 19:27:04 56° ESE 19:31:54 10° SSW
Cosmos 864 Rocket 4.4 19:21:58 10° S 19:28:03 68° E 19:34:14 10° NNE
MetOp-A 4.5 19:23:38 10° SE 19:28:40 43° ENE 19:33:42 10° N
Resurs 01 Rocket 3.8 19:31:41 10° NE 19:31:41 10° NE 19:31:45 10° NE
Cosmos 1959 Rocket 4.4 19:27:11 10° S 19:33:16 78° E 19:39:23 10° N
Helios 1A Rocket 2.9 19:29:55 10° S 19:33:57 81° WSW 19:38:00 10° NNW
SME Rocket 4.0 19:28:15 10° NNE 19:34:26 41° E 19:38:46 10° SSE
Cosmos 2333 Rocket 2.7 19:29:03 10° SW 19:34:40 62° WNW 19:40:21 10° NNE
Lacrosse 4 Rocket 2.7 19:32:15 10° SW 19:36:27 44° WNW 19:40:45 10° NNE
GP-B 3.7 19:33:02 10° S 19:37:24 60° W 19:41:49 10° N
USA 234 3.6 19:33:09 14° ENE 19:38:28 43° SE 19:44:37 10° SSW
USA 238 DEB 3.6 19:34:19 10° SSW 19:40:43 63° ESE 19:47:25 10° NE
USA 238 3.6 19:34:26 10° SSW 19:40:50 63° ESE 19:47:32 10° NE
ARGOS 3.7 19:37:56 10° S 19:43:16 60° W 19:48:39 10° NNW
CZ-4 R/B 3.6 19:40:15 10° SSW 19:43:32 26° W 19:46:53 10° NW
DELTA 2 R/B (1) 3.6 19:38:23 10° WSW 19:43:55 72° S 19:46:36 31° E
Cosmos 1869 Rocket 4.0 19:39:38 10° SSW 19:43:57 63° W 19:48:20 10° N
FALCON 9 DEB 3.5 19:46:00 10° NW 19:48:55 41° NNE 19:48:55 41° NNE
ERS-2 4.0 19:47:14 10° N 19:50:30 32° WNW 19:53:47 10° SW
Cosmos 2219 Rocket 3.0 19:45:29 10° SW 19:50:54 52° WNW 19:56:24 10° NNE
Cosmos 1238 Rocket 2.6 19:49:36 10° S 19:53:53 89° W 19:57:27 10° N
Hubble Space Telescope 2.9 19:52:20 10° SSW 19:54:32 14° S 19:54:55 14° S
CREW DRAGON DEMO-1 DEB 4.5 19:52:08 10° W 19:54:33 25° NNW 19:55:13 23° N
SL-08 RB Rocket 4.3 19:50:30 10° S 19:54:56 57° W 19:59:27 10° NNW
Cosmos 1378 3.0 19:51:37 10° N 19:55:21 87° W 19:57:26 25° S
CZ-2C R/B 3.3 19:52:40 10° N 19:57:57 55° WNW 20:03:06 10° SSW
USA 305 4.1 19:54:38 10° NW 19:58:21 28° NNE 19:58:46 27° NE
FALCON 9 DEB 3.9 19:55:32 10° NW 19:58:05 38° N 19:58:05 38° N
Cosmos 1980 3.6 19:53:25 10° S 19:58:57 62° ESE 20:04:32 10° NNE
Cosmos 1733 Rocket 2.9 19:56:53 10° S 20:01:08 61° E 20:05:26 10° NNE
COSMOS 2428 3.7 20:00:32 10° SW 20:06:00 48° WNW 20:11:30 10° NNE
NOSS 3-2 (A) 3.6 20:04:07 10° SW 20:09:38 69° NW 20:15:59 10° NNE
USA 307 4.0 20:08:23 10° NW 20:12:00 31° NNE 20:12:00 31° NNE
USA 306 4.0 20:09:35 10° NW 20:13:13 32° NNE 20:13:13 32° NNE
Cosmos 1743 2.7 20:09:55 10° S 20:13:47 80° W 20:17:42 10° N
NOSS 0 Rocket 4.0 20:13:07 10° SSW 20:19:15 77° WNW 20:25:26 10° NNE
Cosmos 1898 Rocket 3.8 20:14:55 10° N 20:19:30 47° NE 20:19:30 47° NE
Meteor 2-20 4.4 20:14:40 10° N 20:20:48 82° W 20:26:13 14° S
CENTAUR R/B 2.4 20:15:13 10° SW 20:20:56 87° WNW 20:27:50 10° NE
USA 308 4.0 20:19:08 10° NW 20:22:24 33° N 20:22:24 33° N
SJ-6B 3.4 20:28:20 53° SW 20:28:44 56° W 20:32:42 10° NNW
ASTEX 1 4.1 20:27:55 10° N 20:32:39 51° W 20:37:21 10° SSW
OBJECT-B 3.2 20:35:13 20° NNW 20:35:13 20° NNW 20:36:24 10° NNW
Ariane Rocket 3.1 20:35:45 58° SSW 20:36:39 73° WSW 20:41:46 10° NNW
Cosmos 990 Rocket 4.0 20:35:03 10° NNW 20:39:46 74° N 20:39:46 74° N
Cosmos 1763 Rocket 3.5 20:35:39 10° SSW 20:40:57 78° WNW 20:46:18 10° NNE
NOSS 3-2 (C) 3.7 20:45:59 10° SW 20:51:29 60° NW 20:55:55 19° NNE
SJ 16-02 3.1 20:52:05 10° NW 20:55:52 28° W 20:56:22 28° WSW
Cosmos 2237 Rocket 3.1 20:52:42 10° SW 20:58:11 48° WNW 21:03:42 10° NNE
Cosmos 1943 Rocket 3.9 20:54:26 10° N 20:56:58 22° NNE 20:56:58 22° NNE
Cosmos 2278 Rocket 3.1 20:58:07 10° NW 21:03:27 44° WSW 21:04:05 42° SW
Resurs 01 Rocket 3.8 21:09:14 21° NNW 21:09:14 21° NNW 21:10:42 10° NNW
USA 234 3.7 21:20:31 52° N 21:21:35 58° NW 21:27:57 10° WSW
